User: anonymous   Login
Location: Bismarck
(46.7731°N, 100.8200°W)
Time: 09:43:20
(UTC-06:00)
Language:

Landsat 7 - Orbit

View from above orbital plane
View from above orbital plane
View from above satellite
View from above satellite

Ground track
Ground track

The orbit data is extracted from the following two-line orbital elements,

1 25682U 99020A   14332.14001550 -.00001780  00000-0 -38527-3 0  8368
2 25682 098.2217 039.6335 0000678 076.5546 283.5744 14.57092637830869
Epoch (UTC): 28 November 2014 03:21:37
Eccentricity: 0.0000678
inclination: 98.2217°
perigee height: 702 km
apogee height: 703 km
right ascension of ascending node: 39.6335°
argument of perigee: 76.5546°
revolutions per day: 14.57092637
mean anomaly at epoch: 283.5744°
orbit number at epoch: 83086

The dashed part of the orbit path shows where the satellite is in the earth's shadow,  

DLR